TimeWET,TemperatureF,Dew PointF,Humidity,Sea Level PressureIn,VisibilityMPH,Wind Direction,Wind SpeedMPH,Gust SpeedMPH,PrecipitationIn,Events,Conditions,WindDirDegrees,DateUTC
12:00 AM,48,43,77,30.18,6,ENE,6.9,,,,,70,2013-02-25 00:00:00
12:00 AM,48.2,42.8,82,30.15,-9999.0,ENE,6.9,-,N/A,,Clear,70,2013-02-25 00:00:00
1:00 AM,48.2,44.6,87,30.12,-9999.0,East,9.2,-,N/A,,Clear,80,2013-02-25 01:00:00
1:30 AM,46.4,44.6,93,30.12,-9999.0,East,9.2,-,N/A,,Clear,90,2013-02-25 01:30:00
2:00 AM,46.4,42.8,87,30.12,-9999.0,East,8.1,-,N/A,,Clear,80,2013-02-25 02:00:00
2:30 AM,46.4,44.6,93,30.12,-9999.0,East,8.1,-,N/A,,Clear,90,2013-02-25 02:30:00
3:00 AM,46,44,89,30.15,6,ENE,9.2,,,,,70,2013-02-25 03:00:00
3:00 AM,46.4,44.6,93,30.12,-9999.0,ENE,8.1,-,N/A,,Clear,70,2013-02-25 03:00:00
3:30 AM,46.4,42.8,87,30.12,-9999.0,East,8.1,-,N/A,,Clear,80,2013-02-25 03:30:00
4:00 AM,44.6,42.8,93,30.12,-9999.0,East,6.9,-,N/A,,Clear,90,2013-02-25 04:00:00
4:30 AM,44.6,42.8,93,30.09,-9999.0,East,6.9,-,N/A,,Clear,80,2013-02-25 04:30:00
5:00 AM,42.8,41.0,93,30.09,-9999.0,East,5.8,-,N/A,,Clear,80,2013-02-25 05:00:00
5:30 AM,42.8,42.8,100,30.09,-9999.0,East,6.9,-,N/A,,Clear,80,2013-02-25 05:30:00
6:00 AM,42,42,98,30.16,6,East,5.8,,,,,90,2013-02-25 06:00:00
6:00 AM,42.8,41.0,93,30.09,-9999.0,East,5.8,-,N/A,,Clear,90,2013-02-25 06:00:00
6:30 AM,41.0,41.0,100,30.09,-9999.0,East,6.9,-,N/A,,Clear,100,2013-02-25 06:30:00
7:00 AM,41.0,41.0,100,30.09,4.3,East,6.9,-,N/A,,Unknown,80,2013-02-25 07:00:00
7:30 AM,42.8,41.0,93,30.09,4.3,East,5.8,-,N/A,,Unknown,90,2013-02-25 07:30:00
8:00 AM,44.6,44.6,100,30.09,3.7,East,5.8,-,N/A,,Unknown,90,2013-02-25 08:00:00
8:30 AM,48.2,44.6,87,30.09,3.7,East,8.1,-,N/A,,Unknown,100,2013-02-25 08:30:00
9:00 AM,52,44,66,30.12,4,East,8.1,,,,,90,2013-02-25 09:00:00
9:00 AM,51.8,44.6,76,30.09,3.7,East,8.1,-,N/A,,Unknown,90,2013-02-25 09:00:00
9:30 AM,53.6,44.6,72,30.09,3.7,East,8.1,-,N/A,,Unknown,100,2013-02-25 09:30:00
10:00 AM,55.4,44.6,67,30.09,3.7,East,9.2,-,N/A,,Unknown,80,2013-02-25 10:00:00
10:30 AM,59.0,44.6,59,30.09,5.0,ENE,8.1,-,N/A,,Unknown,70,2013-02-25 10:30:00
11:00 AM,60.8,44.6,55,30.06,5.0,NE,9.2,-,N/A,,Unknown,50,2013-02-25 11:00:00
11:30 AM,62.6,46.4,55,30.06,5.0,ENE,8.1,-,N/A,,Unknown,60,2013-02-25 11:30:00
12:00 PM,66,46,36,30.02,6,ENE,5.8,,,,,60,2013-02-25 12:00:00
12:00 PM,66.2,44.6,46,30.06,5.6,ENE,5.8,-,N/A,,Unknown,60,2013-02-25 12:00:00
12:30 PM,68.0,39.2,35,30.04,-9999.0,NE,5.8,-,N/A,,Clear,40,2013-02-25 12:30:00
1:00 PM,69.8,39.2,33,30.01,-9999.0,ENE,5.8,-,N/A,,Clear,60,2013-02-25 13:00:00
1:30 PM,71.6,35.6,27,30.01,-9999.0,North,5.8,-,N/A,,Clear,10,2013-02-25 13:30:00
2:00 PM,73.4,33.8,23,30.01,-9999.0,ENE,9.2,-,N/A,,Clear,70,2013-02-25 14:00:00
2:30 PM,73.4,37.4,27,29.98,-9999.0,NE,6.9,-,N/A,,Clear,40,2013-02-25 14:30:00
3:00 PM,75,35,13,29.92,6,ENE,8.1,,,,,70,2013-02-25 15:00:00
3:00 PM,75.2,35.6,24,29.98,-9999.0,East,8.1,-,N/A,,Clear,80,2013-02-25 15:00:00
3:30 PM,73.4,35.6,25,29.98,-9999.0,East,10.4,-,N/A,,Clear,80,2013-02-25 15:30:00
4:00 PM,73.4,35.6,25,29.95,-9999.0,ENE,11.5,-,N/A,,Clear,70,2013-02-25 16:00:00
4:30 PM,73.4,35.6,25,29.95,-9999.0,ENE,10.4,-,N/A,,Clear,60,2013-02-25 16:30:00
5:00 PM,73.4,33.8,23,29.95,-9999.0,ENE,10.4,-,N/A,,Clear,70,2013-02-25 17:00:00
5:30 PM,73.4,33.8,23,29.95,-9999.0,ENE,9.2,-,N/A,,Clear,60,2013-02-25 17:30:00
6:00 PM,71,35,16,29.92,6,NE,10.4,,,,,50,2013-02-25 18:00:00
6:00 PM,71.6,33.8,25,29.98,-9999.0,NE,10.4,-,N/A,,Clear,50,2013-02-25 18:00:00
6:30 PM,68.0,33.8,28,29.98,-9999.0,NE,10.4,-,N/A,,Clear,40,2013-02-25 18:30:00
7:00 PM,64.4,35.6,34,29.98,-9999.0,NE,9.2,-,N/A,,Clear,40,2013-02-25 19:00:00
7:30 PM,62.6,37.4,39,30.01,5.6,ENE,5.8,-,N/A,,Unknown,70,2013-02-25 19:30:00
8:00 PM,59.0,39.2,48,30.01,5.0,ENE,5.8,-,N/A,,Unknown,70,2013-02-25 20:00:00
8:30 PM,59.0,39.2,48,30.01,5.0,ENE,4.6,-,N/A,,Unknown,70,2013-02-25 20:30:00
9:00 PM,57,40,42,29.99,4,East,5.8,,,,Clear,100,2013-02-25 21:00:00
9:00 PM,57.2,41.0,55,30.01,4.3,ESE,5.8,-,N/A,,Unknown,110,2013-02-25 21:00:00
9:30 PM,57.2,39.2,51,30.01,4.3,NE,5.8,-,N/A,,Unknown,50,2013-02-25 21:30:00
10:00 PM,57.2,42.8,59,29.98,5.6,ENE,6.9,-,N/A,,Unknown,60,2013-02-25 22:00:00
10:30 PM,53.6,41.0,62,29.98,5.0,ENE,6.9,-,N/A,,Unknown,60,2013-02-25 22:30:00
11:00 PM,55.4,44.6,67,29.98,-9999.0,ENE,6.9,-,N/A,,Clear,60,2013-02-25 23:00:00
11:30 PM,53.6,44.6,72,29.98,5.6,East,5.8,-,N/A,,Unknown,80,2013-02-25 23:30:00